This is the latest recevied weather packets stored in our database for station/object G4KVI. If no packets are shown the sender has not sent any weather packets the latest 10 day(s).
| Time | Temp. | Humidity | Pressure | Rain* | Wind** | Luminosity | Snow |
|---|---|---|---|---|---|---|---|
| 1777143303 | 18.89° C | 36% | 1022.6 hPa | 0 mm | - | 15 W/m² | - |
| 1777143003 | 18.89° C | 35% | 1022.5 hPa | 0 mm | - | 18 W/m² | - |
| 1777142704 | 18.89° C | 35% | 1022.4 hPa | 0 mm | - | 21 W/m² | - |
| 1777142404 | 19.44° C | 34% | 1022.6 hPa | 0 mm | - | 23 W/m² | - |
| 1777142104 | 19.44° C | 33% | 1022.4 hPa | 0 mm | - | 30 W/m² | - |
| 1777141804 | 19.44° C | 33% | 1022.5 hPa | 0 mm | - | 36 W/m² | - |
| 1777141504 | 20° C | 32% | 1022.5 hPa | 0 mm | - | 40 W/m² | - |
| 1777141204 | 20.56° C | 30% | 1022.3 hPa | 0 mm | - | 46 W/m² | - |
| 1777140904 | 20.56° C | 31% | 1022.6 hPa | 0 mm | - | 56 W/m² | - |
| 1777140604 | 20.56° C | 31% | 1022.6 hPa | 0 mm | - | 66 W/m² | - |
| 1777140304 | 20.56° C | 30% | 1022.6 hPa | 0 mm | - | 75 W/m² | - |
| 1777140004 | 20.56° C | 32% | 1022.4 hPa | 0 mm | - | 84 W/m² | - |
| 1777139704 | 20.56° C | 32% | 1022.6 hPa | 0 mm | - | 87 W/m² | - |
| 1777139404 | 20.56° C | 31% | 1022.6 hPa | 0 mm | - | 102 W/m² | - |
| 1777139104 | 20.56° C | 30% | 1022.3 hPa | 0 mm | - | 70 W/m² | - |
| 1777138804 | 20.56° C | 30% | 1022.6 hPa | 0 mm | - | 111 W/m² | - |
| 1777138504 | 20.56° C | 31% | 1022.3 hPa | 0 mm | - | 119 W/m² | - |
| 1777138204 | 20.56° C | 31% | 1022.3 hPa | 0 mm | - | 128 W/m² | - |
| 1777137904 | 21.11° C | 31% | 1022.6 hPa | 0 mm | - | 64 W/m² | - |
| 1777137604 | 21.11° C | 31% | 1022.3 hPa | 0 mm | - | 69 W/m² | - |
| 1777137304 | 21.11° C | 30% | 1022.6 hPa | 0 mm | - | 163 W/m² | - |
| 1777137004 | 21.11° C | 32% | 1022.4 hPa | 0 mm | - | 70 W/m² | - |
| 1777136704 | 21.11° C | 32% | 1022.3 hPa | 0 mm | - | 93 W/m² | - |
| 1777136404 | 21.67° C | 30% | 1022 hPa | 0 mm | - | 178 W/m² | - |
| 1777136104 | 21.11° C | 32% | 1022 hPa | 0 mm | - | 221 W/m² | - |
* Rain latest hour (hover to see other rain measurements)
** Current wind speed in m/s (hover to see current wind gust speed)